Regional Weather Roundup
Issued by NWS Little Rock, AR

Home | Current Version | Previous Version | Text Only | Print | Product List | Glossary Off
Versions: 1 2 3 4 5 6 7 8 9 10 11 12 13 14 15 16 17 18 19 20 21 22 23 24 25 26 27 28 29 30 31

000
ASUS44 KLZK 201505
RWRLZK

WEATHER ROUNDUP FOR ARKANSAS
NATIONAL WEATHER SERVICE LITTLE ROCK AR
900 AM CST FRI JAN 20 2017

NOTE: "FAIR" INDICATES FEW OR NO CLOUDS BELOW 12,000 FEET WITH NO
SIGNIFICANT WEATHER AND/OR OBSTRUCTIONS TO VISIBILITY.

ARZ001-003-010-029-201600-
NORTHWEST ARKANSAS

CITY           SKY/WX    TMP DP  RH WIND       PRES   REMARKS
FAYETTEVILLE   MOSUNNY   52  50  93 S16G22    29.57S
FORT SMITH     LGT RAIN  46  45  96 NE7       29.61R VSB 1/4
HARRISON       CLOUDY    50  49  96 SE6       29.60S
BENTONVILLE    SUNNY    N/A N/A N/A S10       29.57R
ROGERS         SUNNY     49  47  93 SE7       29.57S
SILOAM SPGS    SUNNY     50  46  87 SE9       29.55S
HIGHFILL       SUNNY     50  48  93 SE12      29.56R
SPRINGDALE     MOSUNNY   50  50 100 SE7       29.58F
$$

ARZ004-005-016-201600-
NORTH CENTRAL ARKANSAS

CITY           SKY/WX    TMP DP  RH WIND       PRES   REMARKS
BATESVILLE     CLOUDY    55  52  88 S9        29.69S
FLIPPIN        CLOUDY    48  45  87 E5        29.60F
MTN HOME       CLOUDY    50  48  93 SE7       29.62F
$$

ARZ040-041-201600-
WEST CENTRAL ARKANSAS

CITY           SKY/WX    TMP DP  RH WIND       PRES   REMARKS
MENA           MOSUNNY   55  55 100 S6        29.65R
MOUNT IDA      PTSUNNY   57  50  77 MISG      29.63R
$$

ARZ009-017-025-026-028-201600-
NORTHEAST ARKANSAS

CITY           SKY/WX    TMP DP  RH WIND       PRES   REMARKS
JONESBORO      CLOUDY    57  55  93 S7        29.70S
NEWPORT        MOSUNNY   55  54  96 S6        29.70R
WALNUT RIDGE   CLOUDY    52  48  87 S5        29.70R
BLYTHEVILLE    CLOUDY    57  55  93 S8        29.73R
NW BLYTHEVILLE CLOUDY    57  55  94 S10       29.72R
$$

ARZ022-023-033-042-044-201600-
CENTRAL ARKANSAS

CITY           SKY/WX    TMP DP  RH WIND       PRES   REMARKS
LITTLE ROCK    CLOUDY    57  56  96 S9        29.69S
N LITTLE ROCK    N/A     56  54  94 S6        29.70S
JACKSONVILLE   CLOUDY    58  57  99 S8        29.68S
SEARCY         CLOUDY    56  56 100 S6        29.71R
HOT SPRINGS    PTSUNNY   57  54  89 SW8       29.67S
RUSSELLVILLE   SUNNY     56  51  84 SE6       29.62F
CLINTON        CLOUDY    55  52  88 SE6       29.66F FOG
$$

ARZ036-201600-
EAST ARKANSAS

CITY           SKY/WX    TMP DP  RH WIND       PRES   REMARKS
WEST MEMPHIS   CLOUDY    57  57 100 S14       29.74R
$$

ARZ050-053-066-070-073-201600-
SOUTHWEST ARKANSAS

CITY           SKY/WX    TMP DP  RH WIND       PRES   REMARKS
ARKADELPHIA    PTSUNNY   57  56  96 S5        29.70R
CAMDEN         PTSUNNY   57  55  94 S7        29.72R
TEXARKANA      SUNNY     57  55  93 SW14      29.69R
EL DORADO      CLOUDY    58  57  97 S10       29.73R
DE QUEEN       SUNNY     56  55  97 SW3       29.65S
$$

ARZ056-057-069-201600-
SOUTHEAST ARKANSAS

CITY           SKY/WX    TMP DP  RH WIND       PRES   REMARKS
PINE BLUFF     CLOUDY    58  56  93 S7        29.73R
STUTTGART      CLOUDY    57  52  82 S10       29.73R
MONTICELLO     CLOUDY    60  56  86 S9        29.74R

$$






USA.gov is the U.S. government's official web portal to all federal, state and local government web resources and services.